EZY61JA EGKK-LGSK

Flight info

Callsign EZY61JA
Flight time 2h 47m
Altitude 37000
Route DVR L9 KONAN DCT KOK DCT RITAX DCT EDISA DCT KUNOD DCT GEDSO DCT GIMIX DCT GORPA DCT DEVUL DCT LIKVI DCT REMSO DCT MEDUX UM867 KOGAT DCT ERANA DCT TSL UL617 IBIDI
Aircraft A320/M-SDE3FGHIRWY/LB1

Departure

Time 2026-05-09 10:57
Airport London Gatwick Airport (EGKK)

Arrival

Time 2026-05-09 13:44
Airport Skiathos Island National Airport (LGSK)
Time Latitude Longitude Altitude Speed Heading
2026-05-09 10:21 51.16248 -0.18061 232 ft 0 kts 77°
2026-05-09 10:43 51.16239 -0.18124 206 ft 9 kts 77°
2026-05-09 10:43 51.16238 -0.18216 206 ft 4 kts 152°
2026-05-09 10:43 51.16246 -0.18224 205 ft 0 kts 167°
2026-05-09 10:46 51.16228 -0.18218 205 ft 4 kts 168°
2026-05-09 10:46 51.16195 -0.18207 205 ft 6 kts 168°
2026-05-09 10:46 51.16153 -0.18191 211 ft 11 kts 167°
2026-05-09 10:46 51.16072 -0.18161 211 ft 11 kts 167°
2026-05-09 10:47 51.16001 -0.18138 211 ft 10 kts 169°
2026-05-09 10:47 51.15941 -0.18118 210 ft 8 kts 168°
2026-05-09 10:47 51.15885 -0.18098 205 ft 11 kts 167°
2026-05-09 10:47 51.15811 -0.18072 210 ft 10 kts 167°
2026-05-09 10:48 51.15748 -0.18049 205 ft 10 kts 168°
2026-05-09 10:48 51.15685 -0.18078 208 ft 10 kts 245°
2026-05-09 10:48 51.15671 -0.18176 210 ft 8 kts 257°
2026-05-09 10:48 51.15657 -0.18275 208 ft 14 kts 257°
2026-05-09 10:49 51.15636 -0.18423 205 ft 13 kts 257°
2026-05-09 10:49 51.15617 -0.18564 209 ft 12 kts 257°
2026-05-09 10:49 51.15599 -0.18692 209 ft 11 kts 257°
2026-05-09 10:49 51.15574 -0.18810 213 ft 11 kts 229°
2026-05-09 10:50 51.15506 -0.18817 209 ft 9 kts 168°
2026-05-09 10:50 51.15433 -0.18792 207 ft 11 kts 168°
2026-05-09 10:50 51.15361 -0.18767 207 ft 10 kts 167°
2026-05-09 10:50 51.15301 -0.18746 205 ft 8 kts 167°
2026-05-09 10:51 51.15237 -0.18724 208 ft 10 kts 168°
2026-05-09 10:51 51.15172 -0.18702 210 ft 10 kts 172°
2026-05-09 10:51 51.15117 -0.18836 209 ft 18 kts 258°
2026-05-09 10:51 51.15095 -0.19002 205 ft 14 kts 258°
2026-05-09 10:52 51.15075 -0.19147 208 ft 13 kts 257°
2026-05-09 10:52 51.15055 -0.19290 210 ft 15 kts 258°
2026-05-09 10:52 51.15031 -0.19464 205 ft 15 kts 257°
2026-05-09 10:52 51.15010 -0.19621 214 ft 14 kts 257°
2026-05-09 10:53 51.14985 -0.19797 212 ft 18 kts 256°
2026-05-09 10:53 51.14958 -0.19981 205 ft 16 kts 260°
2026-05-09 10:53 51.14936 -0.20151 211 ft 15 kts 258°
2026-05-09 10:53 51.14912 -0.20323 211 ft 18 kts 257°
2026-05-09 10:54 51.14886 -0.20509 205 ft 16 kts 257°
2026-05-09 10:54 51.14863 -0.20677 205 ft 15 kts 257°
2026-05-09 10:54 51.14838 -0.20860 208 ft 17 kts 258°
2026-05-09 10:54 51.14814 -0.21037 210 ft 15 kts 256°
2026-05-09 10:55 51.14784 -0.21190 205 ft 14 kts 253°
2026-05-09 10:55 51.14764 -0.21330 209 ft 12 kts 258°
2026-05-09 10:55 51.14715 -0.21407 210 ft 10 kts 176°
2026-05-09 10:55 51.14659 -0.21358 215 ft 10 kts 141°
2026-05-09 10:56 51.14593 -0.21320 209 ft 9 kts 167°
2026-05-09 10:56 51.14533 -0.21257 206 ft 12 kts 126°
2026-05-09 10:56 51.14526 -0.21128 214 ft 13 kts 77°
2026-05-09 10:56 51.14586 -0.20700 215 ft 78 kts 78°
2026-05-09 10:57 51.14750 -0.19512 214 ft 141 kts 78°
2026-05-09 10:57 51.14975 -0.17880 734 ft 151 kts 78°
2026-05-09 10:57 51.15203 -0.16224 1523 ft 155 kts 80°
2026-05-09 10:57 51.15439 -0.14483 2052 ft 168 kts 81°
2026-05-09 10:58 51.15697 -0.12583 2490 ft 183 kts 80°
2026-05-09 10:58 51.15978 -0.10511 2895 ft 200 kts 80°
2026-05-09 10:58 51.16289 -0.08233 3326 ft 220 kts 80°
2026-05-09 10:58 51.16630 -0.05758 3881 ft 237 kts 79°
2026-05-09 10:59 51.16888 -0.03081 4452 ft 253 kts 92°
2026-05-09 10:59 51.16840 -0.00223 5225 ft 263 kts 94°
2026-05-09 10:59 51.16787 0.02679 6043 ft 269 kts 94°
2026-05-09 10:59 51.16730 0.05696 6867 ft 275 kts 94°
2026-05-09 11:00 51.16673 0.08774 7698 ft 280 kts 93°
2026-05-09 11:00 51.16614 0.11901 8548 ft 285 kts 93°
2026-05-09 11:00 51.16557 0.15075 9506 ft 290 kts 92°
2026-05-09 11:00 51.16524 0.18316 10311 ft 294 kts 91°
2026-05-09 11:01 51.16524 0.21597 11074 ft 298 kts 91°
2026-05-09 11:01 51.16539 0.24919 11853 ft 302 kts 90°
2026-05-09 11:01 51.16550 0.26722 12271 ft 304 kts 90°
2026-05-09 11:01 51.16555 0.27606 12459 ft 305 kts 90°
2026-05-09 11:02 51.16570 0.31009 13229 ft 309 kts 90°
2026-05-09 11:02 51.16571 0.31275 13289 ft 309 kts 90°
2026-05-09 11:02 51.16580 0.34260 13932 ft 313 kts 90°
2026-05-09 11:03 51.16590 0.37741 14613 ft 316 kts 90°
2026-05-09 11:03 51.16594 0.41262 15291 ft 319 kts 91°
2026-05-09 11:03 51.16593 0.44823 15965 ft 322 kts 91°
2026-05-09 11:03 51.16588 0.48404 16635 ft 324 kts 91°
2026-05-09 11:04 51.16586 0.52055 17045 ft 337 kts 91°
2026-05-09 11:04 51.16584 0.55883 17296 ft 353 kts 91°
2026-05-09 11:04 51.16580 0.59884 17497 ft 369 kts 91°
2026-05-09 11:04 51.16574 0.64075 17678 ft 385 kts 91°
2026-05-09 11:05 51.16569 0.68406 18024 ft 395 kts 91°
2026-05-09 11:05 51.16564 0.72808 18593 ft 399 kts 91°
2026-05-09 11:05 51.16557 0.77238 19117 ft 402 kts 91°
2026-05-09 11:05 51.16547 0.81710 19555 ft 405 kts 91°
2026-05-09 11:06 51.16534 0.86146 20088 ft 407 kts 91°
2026-05-09 11:06 51.16519 0.90727 20616 ft 410 kts 91°
2026-05-09 11:06 51.16498 0.95306 21133 ft 413 kts 91°
2026-05-09 11:06 51.16473 0.99883 21638 ft 416 kts 91°
2026-05-09 11:07 51.16448 1.04521 22129 ft 419 kts 91°
2026-05-09 11:07 51.16424 1.09183 22612 ft 422 kts 91°
2026-05-09 11:07 51.16402 1.13824 23071 ft 425 kts 91°
2026-05-09 11:07 51.16380 1.18545 23527 ft 428 kts 91°
2026-05-09 11:08 51.16357 1.22831 23887 ft 431 kts 91°
2026-05-09 11:08 51.16342 1.25121 24060 ft 432 kts 91°
2026-05-09 11:08 51.16323 1.27798 24278 ft 433 kts 91°
2026-05-09 11:08 51.16313 1.29125 24376 ft 434 kts 91°
2026-05-09 11:09 51.16277 1.33938 24735 ft 436 kts 91°
2026-05-09 11:09 51.16206 1.38774 25092 ft 438 kts 93°
2026-05-09 11:09 51.16037 1.43635 25448 ft 439 kts 95°
2026-05-09 11:09 51.15798 1.48497 25786 ft 441 kts 96°
2026-05-09 11:10 51.15519 1.53385 26118 ft 443 kts 96°
2026-05-09 11:10 51.15232 1.58286 26450 ft 445 kts 96°
2026-05-09 11:10 51.14954 1.63207 26766 ft 447 kts 96°
2026-05-09 11:10 51.14690 1.68141 27080 ft 449 kts 96°
2026-05-09 11:11 51.14437 1.73110 27385 ft 451 kts 96°
2026-05-09 11:11 51.14191 1.78080 27672 ft 452 kts 96°
2026-05-09 11:11 51.13944 1.83083 27960 ft 454 kts 96°
2026-05-09 11:11 51.13692 1.88117 28244 ft 456 kts 96°
2026-05-09 11:12 51.13434 1.93149 28512 ft 457 kts 96°
2026-05-09 11:12 51.13168 1.98204 28773 ft 459 kts 96°
2026-05-09 11:12 51.12900 2.03276 29019 ft 460 kts 96°
2026-05-09 11:12 51.12631 2.08375 29276 ft 461 kts 96°
2026-05-09 11:13 51.12362 2.13456 29616 ft 460 kts 96°
2026-05-09 11:13 51.12092 2.18536 29976 ft 459 kts 96°
2026-05-09 11:13 51.11821 2.23526 30306 ft 458 kts 96°
2026-05-09 11:13 51.11545 2.28571 30598 ft 458 kts 96°
2026-05-09 11:14 51.11269 2.33617 30867 ft 457 kts 96°
2026-05-09 11:14 51.10990 2.38639 31131 ft 458 kts 97°
2026-05-09 11:14 51.10705 2.43680 31402 ft 458 kts 97°
2026-05-09 11:14 51.10418 2.48731 31672 ft 458 kts 97°
2026-05-09 11:15 51.10131 2.53773 31943 ft 458 kts 97°
2026-05-09 11:15 51.09842 2.58816 32218 ft 458 kts 97°
2026-05-09 11:15 51.09349 2.63801 32506 ft 455 kts 105°
2026-05-09 11:15 51.08397 2.68584 32802 ft 453 kts 114°
2026-05-09 11:16 51.07074 2.73103 33066 ft 452 kts 118°
2026-05-09 11:16 51.05696 2.77608 33325 ft 452 kts 118°
2026-05-09 11:16 51.04325 2.82106 33592 ft 452 kts 118°
2026-05-09 11:16 51.02958 2.86596 33880 ft 452 kts 118°
2026-05-09 11:17 51.01588 2.91094 34155 ft 452 kts 118°
2026-05-09 11:17 51.00217 2.95591 34384 ft 452 kts 118°
2026-05-09 11:17 50.98840 3.00098 34604 ft 453 kts 118°
2026-05-09 11:17 50.97463 3.04593 34822 ft 453 kts 118°
2026-05-09 11:18 50.96086 3.09080 35033 ft 453 kts 118°
2026-05-09 11:18 50.94704 3.13574 35232 ft 454 kts 118°
2026-05-09 11:18 50.93315 3.18078 35436 ft 454 kts 118°
2026-05-09 11:18 50.91926 3.22570 35624 ft 454 kts 118°
2026-05-09 11:19 50.90534 3.27060 35817 ft 454 kts 118°
2026-05-09 11:19 50.89139 3.31553 35996 ft 455 kts 118°
2026-05-09 11:19 50.87745 3.36041 36172 ft 455 kts 118°
2026-05-09 11:19 50.86347 3.40538 36357 ft 455 kts 118°
2026-05-09 11:20 50.84946 3.45038 36523 ft 455 kts 118°
2026-05-09 11:20 50.83541 3.49536 36690 ft 456 kts 118°
2026-05-09 11:20 50.82137 3.54019 36855 ft 456 kts 118°
2026-05-09 11:20 50.80731 3.58513 37032 ft 456 kts 118°
2026-05-09 11:21 50.79318 3.63013 37098 ft 458 kts 118°
2026-05-09 11:21 50.76479 3.72020 37104 ft 464 kts 118°
2026-05-09 11:22 50.73560 3.81232 37100 ft 469 kts 118°
2026-05-09 11:22 50.70631 3.90472 37101 ft 472 kts 118°
2026-05-09 11:23 50.67693 3.99680 37101 ft 473 kts 118°
2026-05-09 11:23 50.64731 4.08943 37101 ft 473 kts 119°
2026-05-09 11:24 50.61764 4.18198 37102 ft 473 kts 119°
2026-05-09 11:24 50.59280 4.25918 37097 ft 472 kts 119°
2026-05-09 11:25 50.56295 4.35137 37102 ft 472 kts 119°
2026-05-09 11:25 50.53305 4.44336 37100 ft 472 kts 119°
2026-05-09 11:26 50.50315 4.53530 37100 ft 472 kts 119°
2026-05-09 11:26 50.47321 4.62712 37097 ft 472 kts 119°
2026-05-09 11:27 50.44385 4.71665 37115 ft 461 kts 119°
2026-05-09 11:27 50.41445 4.80598 37104 ft 461 kts 120°
2026-05-09 11:28 50.38495 4.89532 37095 ft 461 kts 119°
2026-05-09 11:28 50.35540 4.98459 37094 ft 462 kts 119°
2026-05-09 11:29 50.32578 5.07372 37092 ft 462 kts 120°
2026-05-09 11:29 50.29591 5.16302 37083 ft 463 kts 120°
2026-05-09 11:30 50.26599 5.25210 37080 ft 463 kts 120°
2026-05-09 11:30 50.23604 5.34113 37080 ft 463 kts 120°
2026-05-09 11:31 50.20603 5.43026 37081 ft 464 kts 120°
2026-05-09 11:31 50.17583 5.51952 37083 ft 465 kts 120°
2026-05-09 11:32 50.14549 5.60867 37080 ft 465 kts 120°
2026-05-09 11:32 50.11513 5.69781 37084 ft 466 kts 120°
2026-05-09 11:33 50.08478 5.78656 37087 ft 466 kts 120°
2026-05-09 11:33 50.03441 5.91596 37085 ft 465 kts 125°
2026-05-09 11:34 49.99813 5.99928 37083 ft 466 kts 126°
2026-05-09 11:34 49.96242 6.08251 37083 ft 466 kts 125°
2026-05-09 11:35 49.92707 6.16704 37081 ft 467 kts 124°
2026-05-09 11:35 49.89180 6.25171 37079 ft 467 kts 124°
2026-05-09 11:36 49.85631 6.33606 37079 ft 468 kts 124°
2026-05-09 11:36 49.82046 6.42045 37073 ft 469 kts 125°
2026-05-09 11:37 49.78455 6.50468 37070 ft 469 kts 125°
2026-05-09 11:37 49.74860 6.58889 37075 ft 470 kts 125°
2026-05-09 11:38 49.71259 6.67315 37072 ft 470 kts 124°
2026-05-09 11:38 49.67644 6.75747 37067 ft 471 kts 125°
2026-05-09 11:39 49.64021 6.84165 37064 ft 471 kts 125°
2026-05-09 11:40 49.58558 6.96797 37072 ft 472 kts 125°
2026-05-09 11:40 49.54900 7.05234 37074 ft 473 kts 125°
2026-05-09 11:41 49.51244 7.13632 37078 ft 474 kts 125°
2026-05-09 11:41 49.47566 7.22056 37082 ft 474 kts 125°
2026-05-09 11:42 49.43875 7.30480 37073 ft 475 kts 125°
2026-05-09 11:42 49.40178 7.38892 37072 ft 476 kts 125°
2026-05-09 11:43 49.36466 7.47305 37078 ft 476 kts 125°
2026-05-09 11:43 49.32747 7.55712 37073 ft 477 kts 125°
2026-05-09 11:44 49.29017 7.64121 37073 ft 477 kts 125°
2026-05-09 11:44 49.25273 7.72535 37078 ft 478 kts 125°
2026-05-09 11:45 49.21517 7.80937 37074 ft 479 kts 125°
2026-05-09 11:45 49.17752 7.89342 37079 ft 479 kts 126°
2026-05-09 11:46 49.13978 7.97748 37085 ft 480 kts 126°
2026-05-09 11:46 49.10194 8.06142 37075 ft 480 kts 126°
2026-05-09 11:47 49.06401 8.14545 37077 ft 481 kts 126°
2026-05-09 11:47 49.02593 8.22947 37077 ft 482 kts 126°
2026-05-09 11:48 48.98763 8.31347 37072 ft 483 kts 126°
2026-05-09 11:48 48.94836 8.39632 37084 ft 483 kts 128°
2026-05-09 11:49 48.90799 8.47788 37074 ft 483 kts 128°
2026-05-09 11:49 48.86747 8.55948 37072 ft 484 kts 128°
2026-05-09 11:50 48.82744 8.64095 37074 ft 485 kts 128°
2026-05-09 11:50 48.78729 8.72304 37086 ft 485 kts 128°
2026-05-09 11:51 48.74677 8.80538 37084 ft 486 kts 128°
2026-05-09 11:51 48.70630 8.88717 37080 ft 486 kts 128°
2026-05-09 11:52 48.66563 8.96906 37075 ft 487 kts 128°
2026-05-09 11:52 48.62480 9.05094 37074 ft 487 kts 128°
2026-05-09 11:53 48.58390 9.13276 37066 ft 488 kts 128°
2026-05-09 11:53 48.54289 9.21461 37075 ft 489 kts 128°
2026-05-09 11:54 48.50188 9.29646 37083 ft 489 kts 128°
2026-05-09 11:54 48.46100 9.37783 37082 ft 490 kts 128°
2026-05-09 11:55 48.41966 9.45957 37091 ft 490 kts 129°
2026-05-09 11:56 48.29407 9.70335 37077 ft 492 kts 130°
2026-05-09 11:57 48.25290 9.77902 37071 ft 492 kts 131°
2026-05-09 11:57 48.20951 9.85863 37073 ft 493 kts 131°
2026-05-09 11:58 48.16619 9.93851 37071 ft 494 kts 130°
2026-05-09 11:58 48.12288 10.01843 37074 ft 494 kts 131°
2026-05-09 11:59 48.07943 10.09832 37102 ft 494 kts 131°
2026-05-09 11:59 48.03594 10.17792 37098 ft 495 kts 131°
2026-05-09 12:00 47.99255 10.25707 37101 ft 495 kts 131°
2026-05-09 12:00 47.94883 10.33663 37103 ft 496 kts 131°
2026-05-09 12:01 47.90500 10.41608 37105 ft 496 kts 131°
2026-05-09 12:01 47.86107 10.49554 37100 ft 496 kts 131°
2026-05-09 12:02 47.81715 10.57490 37103 ft 496 kts 131°
2026-05-09 12:02 47.77322 10.65403 37104 ft 496 kts 131°
2026-05-09 12:03 47.72917 10.73311 37105 ft 496 kts 132°
2026-05-09 12:03 47.68513 10.81193 37096 ft 497 kts 132°
2026-05-09 12:04 47.64097 10.89066 37101 ft 496 kts 132°
2026-05-09 12:04 47.59669 10.96929 37096 ft 497 kts 132°
2026-05-09 12:05 47.55233 11.04775 37085 ft 497 kts 133°
2026-05-09 12:05 47.50791 11.12616 37070 ft 496 kts 132°
2026-05-09 12:06 47.46356 11.20446 37060 ft 497 kts 132°
2026-05-09 12:06 47.42665 11.26946 37066 ft 496 kts 133°
2026-05-09 12:07 47.37503 11.35972 37048 ft 496 kts 133°
2026-05-09 12:07 47.33770 11.42486 37050 ft 496 kts 133°
2026-05-09 12:08 47.29316 11.50253 37048 ft 496 kts 133°
2026-05-09 12:08 47.24849 11.58039 37048 ft 497 kts 133°
2026-05-09 12:09 47.20373 11.65802 37062 ft 497 kts 133°
2026-05-09 12:09 47.15912 11.73486 37065 ft 497 kts 133°
2026-05-09 12:10 47.09574 11.85603 37082 ft 501 kts 120°
2026-05-09 12:10 47.07977 11.90065 37075 ft 501 kts 120°
2026-05-09 12:11 47.04751 11.99138 37076 ft 501 kts 119°
2026-05-09 12:11 47.01531 12.08219 37099 ft 501 kts 119°
2026-05-09 12:12 46.98311 12.17256 37110 ft 501 kts 119°
2026-05-09 12:12 46.95066 12.26285 37123 ft 501 kts 120°
2026-05-09 12:13 46.91803 12.35306 37132 ft 501 kts 120°
2026-05-09 12:13 46.88543 12.44334 37122 ft 502 kts 120°
2026-05-09 12:14 46.85272 12.53363 37103 ft 503 kts 120°
2026-05-09 12:14 46.81993 12.62389 37102 ft 503 kts 120°
2026-05-09 12:15 46.78707 12.71388 37097 ft 502 kts 120°
2026-05-09 12:15 46.75414 12.80366 37082 ft 502 kts 120°
2026-05-09 12:16 46.72107 12.89364 37076 ft 503 kts 120°
2026-05-09 12:16 46.68800 12.98341 37080 ft 503 kts 120°
2026-05-09 12:17 46.65479 13.07301 37080 ft 503 kts 121°
2026-05-09 12:17 46.62155 13.16261 37074 ft 503 kts 121°
2026-05-09 12:18 46.58837 13.25172 37083 ft 503 kts 121°
2026-05-09 12:18 46.55491 13.34118 37072 ft 503 kts 121°
2026-05-09 12:19 46.52148 13.43032 37080 ft 504 kts 121°
2026-05-09 12:19 46.48785 13.51967 37077 ft 504 kts 121°
2026-05-09 12:20 46.45419 13.60885 37069 ft 504 kts 121°
2026-05-09 12:20 46.42042 13.69790 37072 ft 504 kts 121°
2026-05-09 12:21 46.38674 13.78649 37055 ft 505 kts 121°
2026-05-09 12:21 46.35273 13.87573 37069 ft 506 kts 121°
2026-05-09 12:22 46.31874 13.96479 37081 ft 506 kts 121°
2026-05-09 12:22 46.28458 14.05383 37084 ft 506 kts 121°
2026-05-09 12:23 46.25031 14.14274 37083 ft 505 kts 121°
2026-05-09 12:23 46.21599 14.23137 37075 ft 507 kts 121°
2026-05-09 12:24 46.18159 14.32019 37080 ft 507 kts 122°
2026-05-09 12:24 46.14738 14.40834 37087 ft 507 kts 122°
2026-05-09 12:25 46.11278 14.49713 37085 ft 507 kts 122°
2026-05-09 12:25 46.07816 14.58562 37082 ft 507 kts 122°
2026-05-09 12:26 46.04337 14.67411 37082 ft 508 kts 122°
2026-05-09 12:26 46.00845 14.76256 37079 ft 508 kts 122°
2026-05-09 12:27 45.97356 14.85093 37081 ft 508 kts 122°
2026-05-09 12:27 45.93862 14.93924 37081 ft 508 kts 122°
2026-05-09 12:28 45.90366 15.02747 37085 ft 508 kts 122°
2026-05-09 12:28 45.86845 15.11566 37082 ft 509 kts 122°
2026-05-09 12:29 45.83312 15.20372 37084 ft 509 kts 122°
2026-05-09 12:29 45.79806 15.29104 37082 ft 509 kts 122°
2026-05-09 12:30 45.76001 15.37608 37082 ft 504 kts 133°
2026-05-09 12:30 45.69276 15.49125 37080 ft 505 kts 133°
2026-05-09 12:31 45.62536 15.60685 37084 ft 505 kts 133°
2026-05-09 12:32 45.58034 15.68385 37085 ft 505 kts 133°
2026-05-09 12:32 45.53516 15.76073 37084 ft 505 kts 133°
2026-05-09 12:33 45.48991 15.83750 37084 ft 506 kts 133°
2026-05-09 12:33 45.44463 15.91429 37078 ft 506 kts 133°
2026-05-09 12:34 45.39920 15.99113 37080 ft 507 kts 133°
2026-05-09 12:34 45.35379 16.06772 37077 ft 507 kts 133°
2026-05-09 12:35 45.30824 16.14423 37085 ft 507 kts 134°
2026-05-09 12:35 45.26258 16.22054 37080 ft 507 kts 134°
2026-05-09 12:36 45.21697 16.29674 37078 ft 507 kts 133°
2026-05-09 12:36 45.17123 16.37299 37079 ft 508 kts 134°
2026-05-09 12:37 45.12530 16.44919 37070 ft 508 kts 134°
2026-05-09 12:37 45.07871 16.52437 37073 ft 508 kts 135°
2026-05-09 12:38 45.03135 16.59857 37074 ft 508 kts 135°
2026-05-09 12:38 44.98428 16.67212 37075 ft 508 kts 135°
2026-05-09 12:39 44.93707 16.74638 37075 ft 508 kts 135°
2026-05-09 12:39 44.88992 16.82078 37077 ft 509 kts 135°
2026-05-09 12:40 44.84265 16.89518 37075 ft 509 kts 135°
2026-05-09 12:40 44.79521 16.96939 37075 ft 510 kts 135°
2026-05-09 12:41 44.74763 17.04355 37092 ft 510 kts 135°
2026-05-09 12:41 44.69993 17.11759 37081 ft 511 kts 135°
2026-05-09 12:42 44.65223 17.19152 37092 ft 510 kts 135°
2026-05-09 12:42 44.60449 17.26536 37085 ft 511 kts 136°
2026-05-09 12:43 44.55669 17.33907 37089 ft 511 kts 135°
2026-05-09 12:43 44.50886 17.41277 37093 ft 511 kts 135°
2026-05-09 12:44 44.46096 17.48632 37097 ft 511 kts 136°
2026-05-09 12:44 44.41302 17.55970 37097 ft 511 kts 135°
2026-05-09 12:45 44.36491 17.63309 37100 ft 511 kts 136°
2026-05-09 12:45 44.31683 17.70628 37103 ft 511 kts 136°
2026-05-09 12:46 44.26905 17.77896 37103 ft 511 kts 136°
2026-05-09 12:46 44.22115 17.85152 37106 ft 512 kts 136°
2026-05-09 12:47 44.17281 17.92445 37106 ft 512 kts 136°
2026-05-09 12:47 44.13226 17.98550 37101 ft 512 kts 136°
2026-05-09 12:48 44.08383 18.05831 37110 ft 512 kts 136°
2026-05-09 12:48 44.03561 18.13050 37115 ft 512 kts 136°
2026-05-09 12:49 43.98709 18.20299 37124 ft 512 kts 136°
2026-05-09 12:49 43.93821 18.27559 37121 ft 512 kts 136°
2026-05-09 12:50 43.88984 18.34727 37112 ft 512 kts 136°
2026-05-09 12:50 43.84114 18.41925 37113 ft 512 kts 136°
2026-05-09 12:51 43.79243 18.49118 37120 ft 512 kts 136°
2026-05-09 12:51 43.74373 18.56301 37129 ft 512 kts 136°
2026-05-09 12:52 43.69489 18.63471 37108 ft 512 kts 136°
2026-05-09 12:52 43.64600 18.70629 37125 ft 511 kts 136°
2026-05-09 12:53 43.59718 18.77768 37114 ft 511 kts 136°
2026-05-09 12:53 43.54822 18.84902 37116 ft 512 kts 136°
2026-05-09 12:54 43.49929 18.92014 37122 ft 512 kts 136°
2026-05-09 12:54 43.45032 18.99142 37118 ft 512 kts 136°
2026-05-09 12:55 43.40202 19.06338 37113 ft 512 kts 135°
2026-05-09 12:55 43.35394 19.13555 37091 ft 512 kts 135°
2026-05-09 12:56 43.30560 19.20751 37107 ft 512 kts 135°
2026-05-09 12:56 43.25709 19.27913 37105 ft 512 kts 135°
2026-05-09 12:57 43.20886 19.35017 37102 ft 512 kts 135°
2026-05-09 12:57 43.16032 19.42152 37101 ft 512 kts 135°
2026-05-09 12:58 43.11189 19.49275 37099 ft 510 kts 135°
2026-05-09 12:58 43.06339 19.56373 37098 ft 509 kts 135°
2026-05-09 12:59 43.01501 19.63441 37093 ft 510 kts 135°
2026-05-09 12:59 42.96649 19.70506 37088 ft 510 kts 136°
2026-05-09 13:00 42.91790 19.77550 37093 ft 508 kts 136°
2026-05-09 13:00 42.86986 19.84508 37094 ft 508 kts 136°
2026-05-09 13:01 42.82169 19.91483 37088 ft 508 kts 136°
2026-05-09 13:01 42.77324 19.98477 37101 ft 508 kts 136°
2026-05-09 13:02 42.72527 20.05538 37098 ft 509 kts 133°
2026-05-09 13:02 42.68014 20.12968 37098 ft 510 kts 130°
2026-05-09 13:03 42.63615 20.20537 37101 ft 510 kts 130°
2026-05-09 13:03 42.59152 20.28012 37102 ft 509 kts 131°
2026-05-09 13:04 42.54617 20.35407 37095 ft 509 kts 132°
2026-05-09 13:04 42.50077 20.42773 37091 ft 508 kts 131°
2026-05-09 13:05 42.45556 20.50137 37094 ft 508 kts 131°
2026-05-09 13:05 42.41044 20.57494 37095 ft 508 kts 131°
2026-05-09 13:06 42.36530 20.64834 37106 ft 508 kts 131°
2026-05-09 13:06 42.32004 20.72163 37115 ft 508 kts 131°
2026-05-09 13:07 42.27461 20.79506 37118 ft 507 kts 131°
2026-05-09 13:07 42.22940 20.86806 37113 ft 507 kts 131°
2026-05-09 13:08 42.18405 20.94100 37110 ft 506 kts 132°
2026-05-09 13:08 42.13865 21.01364 37107 ft 507 kts 131°
2026-05-09 13:09 42.09129 21.08278 37082 ft 505 kts 139°
2026-05-09 13:09 42.04027 21.14749 37098 ft 505 kts 139°
2026-05-09 13:10 41.98904 21.21225 37090 ft 505 kts 139°
2026-05-09 13:10 41.93792 21.27687 37085 ft 505 kts 139°
2026-05-09 13:11 41.88675 21.34152 37083 ft 504 kts 139°
2026-05-09 13:11 41.83569 21.40595 37081 ft 504 kts 139°
2026-05-09 13:12 41.78458 21.47011 37076 ft 504 kts 139°
2026-05-09 13:12 41.73341 21.53435 37070 ft 504 kts 139°
2026-05-09 13:13 41.68211 21.59854 37069 ft 505 kts 139°
2026-05-09 13:13 41.63071 21.66253 37085 ft 505 kts 139°
2026-05-09 13:14 41.57933 21.72649 37087 ft 504 kts 139°
2026-05-09 13:16 41.37402 21.98074 37080 ft 505 kts 139°
2026-05-09 13:16 41.32207 22.04459 37079 ft 506 kts 139°
2026-05-09 13:17 41.27044 22.10815 37067 ft 506 kts 139°
2026-05-09 13:17 41.21905 22.17134 37063 ft 506 kts 139°
2026-05-09 13:18 41.16723 22.23456 37061 ft 506 kts 140°
2026-05-09 13:18 41.11384 22.29553 37054 ft 505 kts 143°
2026-05-09 13:19 41.05880 22.35332 37053 ft 505 kts 144°
2026-05-09 13:19 41.00350 22.41083 37040 ft 506 kts 144°
2026-05-09 13:20 40.94863 22.46932 37045 ft 506 kts 143°
2026-05-09 13:20 40.89409 22.52816 37039 ft 506 kts 143°
2026-05-09 13:21 40.83935 22.58680 37031 ft 507 kts 143°
2026-05-09 13:21 40.78444 22.64518 37028 ft 507 kts 144°
2026-05-09 13:22 40.72967 22.70320 37031 ft 508 kts 144°
2026-05-09 13:22 40.67454 22.76155 37032 ft 508 kts 143°
2026-05-09 13:23 40.53633 22.90741 37001 ft 509 kts 144°
2026-05-09 13:24 40.50895 22.93622 36800 ft 501 kts 144°
2026-05-09 13:24 40.48182 22.96461 36238 ft 496 kts 146°
2026-05-09 13:24 40.45319 22.98935 35561 ft 490 kts 154°
2026-05-09 13:24 40.42255 23.00835 34846 ft 485 kts 163°
2026-05-09 13:25 40.39099 23.02389 34103 ft 485 kts 163°
2026-05-09 13:25 40.35930 23.03950 33206 ft 486 kts 163°
2026-05-09 13:25 40.29611 23.07099 31385 ft 487 kts 162°
2026-05-09 13:26 40.26439 23.08686 30472 ft 487 kts 161°
2026-05-09 13:26 40.23271 23.10266 29457 ft 488 kts 161°
2026-05-09 13:26 40.20095 23.11842 28319 ft 489 kts 162°
2026-05-09 13:26 40.16922 23.13409 27492 ft 485 kts 162°
2026-05-09 13:27 40.13794 23.14953 26756 ft 479 kts 162°
2026-05-09 13:27 40.10687 23.16486 26022 ft 474 kts 162°
2026-05-09 13:27 40.07612 23.18005 25320 ft 469 kts 162°
2026-05-09 13:27 40.04580 23.19501 24696 ft 464 kts 162°
2026-05-09 13:28 40.01594 23.20973 24236 ft 455 kts 162°
2026-05-09 13:28 39.98653 23.22420 23670 ft 449 kts 162°
2026-05-09 13:28 39.95740 23.23854 22990 ft 445 kts 162°
2026-05-09 13:28 39.92853 23.25274 22348 ft 441 kts 162°
2026-05-09 13:29 39.90961 23.26201 21951 ft 438 kts 162°
2026-05-09 13:29 39.88119 23.27591 21382 ft 434 kts 162°
2026-05-09 13:29 39.85306 23.28970 20830 ft 430 kts 162°
2026-05-09 13:29 39.82522 23.30338 20298 ft 426 kts 163°
2026-05-09 13:30 39.79760 23.31693 19787 ft 422 kts 163°
2026-05-09 13:30 39.76986 23.33051 19280 ft 417 kts 163°
2026-05-09 13:30 39.74317 23.34355 18808 ft 413 kts 163°
2026-05-09 13:30 39.71641 23.35662 18329 ft 409 kts 163°
2026-05-09 13:31 39.68996 23.36952 17790 ft 405 kts 163°
2026-05-09 13:31 39.66368 23.38227 17256 ft 401 kts 163°
2026-05-09 13:31 39.63767 23.39490 16733 ft 397 kts 163°
2026-05-09 13:31 39.61192 23.40741 16221 ft 393 kts 163°
2026-05-09 13:32 39.58637 23.41981 15710 ft 390 kts 163°
2026-05-09 13:32 39.53605 23.44425 14730 ft 382 kts 163°
2026-05-09 13:32 39.51179 23.45607 14438 ft 361 kts 163°
2026-05-09 13:33 39.48850 23.46743 13927 ft 356 kts 163°
2026-05-09 13:33 39.46544 23.47858 13551 ft 351 kts 163°
2026-05-09 13:33 39.44288 23.48947 13279 ft 337 kts 163°
2026-05-09 13:33 39.42166 23.49975 13058 ft 316 kts 163°
2026-05-09 13:34 39.40124 23.50959 12603 ft 313 kts 163°
2026-05-09 13:34 39.38077 23.51941 11984 ft 312 kts 163°
2026-05-09 13:34 39.36085 23.52900 11395 ft 306 kts 163°
2026-05-09 13:34 39.34108 23.53855 10805 ft 300 kts 163°
2026-05-09 13:35 39.32168 23.54797 10221 ft 295 kts 163°
2026-05-09 13:35 39.30262 23.55721 9632 ft 291 kts 162°
2026-05-09 13:35 39.28370 23.56636 9003 ft 288 kts 163°
2026-05-09 13:35 39.26512 23.57531 8401 ft 282 kts 162°
2026-05-09 13:36 39.24691 23.58407 7798 ft 277 kts 162°
2026-05-09 13:36 39.22900 23.59270 7214 ft 272 kts 162°
2026-05-09 13:36 39.21139 23.60115 6632 ft 268 kts 162°
2026-05-09 13:36 39.19370 23.60716 6031 ft 259 kts 176°
2026-05-09 13:37 39.17576 23.60705 5440 ft 259 kts 191°
2026-05-09 13:37 39.15854 23.60109 4837 ft 253 kts 205°
2026-05-09 13:37 39.14292 23.59112 4241 ft 248 kts 208°
2026-05-09 13:37 39.12792 23.58131 3982 ft 237 kts 208°
2026-05-09 13:38 39.11332 23.57182 3742 ft 232 kts 208°
2026-05-09 13:38 39.09895 23.56246 3498 ft 231 kts 208°
2026-05-09 13:38 39.08464 23.55314 3251 ft 228 kts 207°
2026-05-09 13:38 39.07089 23.54418 2975 ft 217 kts 207°
2026-05-09 13:39 39.05776 23.53563 2713 ft 206 kts 206°
2026-05-09 13:39 39.04548 23.52764 2413 ft 191 kts 206°
2026-05-09 13:39 39.03359 23.51991 2092 ft 191 kts 206°
2026-05-09 13:39 39.02374 23.50949 1978 ft 174 kts 236°
2026-05-09 13:40 39.01989 23.49502 1939 ft 173 kts 269°
2026-05-09 13:40 39.02229 23.48018 1896 ft 174 kts 300°
2026-05-09 13:40 39.03061 23.46874 1857 ft 175 kts 332°
2026-05-09 13:40 39.04210 23.46457 1807 ft 172 kts
2026-05-09 13:41 39.05377 23.46729 1770 ft 171 kts 15°
2026-05-09 13:41 39.06537 23.47074 1718 ft 170 kts 15°
2026-05-09 13:41 39.07673 23.47407 1665 ft 160 kts 15°
2026-05-09 13:41 39.08772 23.47668 1595 ft 160 kts
2026-05-09 13:42 39.09830 23.47713 1559 ft 140 kts
2026-05-09 13:42 39.10779 23.47742 1370 ft 134 kts
2026-05-09 13:42 39.11713 23.47825 1109 ft 136 kts
2026-05-09 13:42 39.12627 23.48081 945 ft 135 kts 19°
2026-05-09 13:43 39.13513 23.48500 809 ft 136 kts 21°
2026-05-09 13:43 39.14398 23.48899 623 ft 136 kts 17°
2026-05-09 13:43 39.15282 23.49276 453 ft 134 kts 18°
2026-05-09 13:43 39.16162 23.49680 243 ft 134 kts 21°
2026-05-09 13:44 39.17038 23.50066 52 ft 133 kts 19°
2026-05-09 13:44 39.17797 23.50406 38 ft 88 kts 19°
2026-05-09 13:44 39.18210 23.50590 54 ft 45 kts 19°
2026-05-09 13:44 39.18451 23.50696 61 ft 21 kts 17°
2026-05-09 13:45 39.18523 23.50715 58 ft 4 kts 92°
2026-05-09 13:45 39.18499 23.50716 59 ft 7 kts 194°
2026-05-09 13:45 39.18453 23.50699 61 ft 6 kts 198°
2026-05-09 13:45 39.18383 23.50668 56 ft 20 kts 199°
2026-05-09 13:46 39.18243 23.50601 55 ft 22 kts 199°
2026-05-09 13:46 39.18092 23.50539 50 ft 25 kts 200°
2026-05-09 13:46 39.17942 23.50454 39 ft 19 kts 244°
2026-05-09 13:46 39.17931 23.50320 40 ft 15 kts 286°
2026-05-09 13:47 39.17951 23.50250 37 ft 0 kts 291°